User: anonymous   Login
Location: Unspecified
(0.0000°N, 0.0000°E)
Time: 01:03:38
(UTC+00:00)
Language:

STARLINK-5537 - Orbit

View from above orbital plane
View from above orbital plane
View from above satellite
View from above satellite

Ground track
Ground track

The orbit is defined by the following mean orbital elements,

1 55384U          26145.59521683 +.00000000 +00000-0 +44971-4 0 00004
2 55384  43.0033 243.9015 0001844 288.3632  71.7019 15.27581270    06
Epoch (UTC): 25 May 2026 14:17:06
Eccentricity: 0.0001844
inclination: 43.0033°
perigee height: 482 km
apogee height: 484 km
right ascension of ascending node: 243.9015°
argument of perigee: 288.3632°
revolutions per day: 15.27581270
mean anomaly at epoch: 71.7019°

The dashed part of the orbit path shows where the satellite is in the earth's shadow,  

DLR